Weather in Belaja Berezka

Russia / Bryansk Oblast     52°22′57″N   33°28′45″E
temp.,
°C
wind,
m/s
gust,
m/s
humid.,
%
clouds,
%
prec.,
mm/h
press.,
hPa
HPBL,
m
21 april, wed
wed2100:00+4ne4894100 0.0 1008429
03:00+4n3594100 0.0 1008394
06:00+3nnw2592100 0.0 1008346
09:00+4wnw3482100 0.0 1009612
12:00+7wnw3570100 0.1 10101182
15:00+7wsw3570100 0.1 1011963
18:00+7sw358396 0.1 1012372
21:00+5s478886 0.1 1013159
22 april, thu
thu2200:00+4s4995100 0.0 1014232
03:00+5s51285100 0.0 1014345
06:00+5s4119244 0.0 1014271
09:00+9ssw597992 0.0 1015382
12:00+14ssw710595 0.2 10151425
15:00+14sw811608 1.6 10151694
18:00+14sw7126384 1.9 10141100
21:00+10s5138011 2.3 1015281
23 april, fri
fri2300:00+9ssw5138596 0.5 1014386
03:00+7s511928 0.8 1014307
06:00+6s389666 0.3 1014217
09:00+8wsw3592100 0.4 1014621
12:00+5nw3588100 1.4 1015426
15:00+5wnw3787100 2.9 1015659
18:00+6nw2480100 0.8 1014427
21:00+5ssw2385100 0.8 101466
24 april, sat
sat2400:00+4sw3691100 0.1 1013208
03:00+3w3788100 0.1 1012225
06:00+1wnw38905 0.0 1013198
09:00+5wnw466817 0.0 1013634
12:00+8w5650100 0.3 10131787
15:00+8w6850100 0.3 10121805
18:00+7w596074 1.0 10121703
21:00+3w4977100 1.0 1014269
25 april, sun
sun2500:00+1wsw410845 0.0 1014253
03:00+1wsw410855 0.0 1014261
06:000wsw38926 0.0 1014208
09:00+4w687470 0.0 1014975
12:00+7wsw8104535 0.1 10142013
15:00+8wsw81037100 0.1 10132698
18:00+6w686021 0.2 10131438
21:00+2wsw4107856 0.3 1014287